Theta_e
289 289 289 289 289 290 289 290 291 293 294 293 292 292 291 291 292 291 291 291 289 288 288 287 287 288 288 287 288 287 287 286 285 286 287 287 285 283 283 284 285 285 285
287 287 286 286 287 286 286 287 288 288 290 289 289 289 288 288 288 288 287 286 286 285 285 285 283 285 283 283 283 282 282 283 282 281 282 282 282 282 281 280 282 283 282
284 284 283 283 283 283 284 284 285 286 286 286 286 285 285 284 284 284 285 284 283 283 282 281 281 281 281 280 280 279 280 281 280 280 279 280 280 279 278 278 279 279 281
283 282 281 281 281 281 282 282 283 284 284 283 283 283 284 283 283 283 282 281 281 281 281 281 281 280 280 279 279 279 279 279 279 278 278 278 278 278 276 275 275 277 277
281 281 280 281 280 280 281 281 281 282 282 283 282 282 281 281 281 281 281 280 279 279 280 280 280 279 282 281 280 279 278 278 277 277 276 275 275 275 274 275 274 275 276
280 280 280 279 279 280 280 279 279 279 279 280 279 280 279 280 284 283 281 280 279 279 278 278 278 278 280 281 281 281 280 277 276 275 275 274 274 275 275 274 274 272 272
280 279 279 279 279 279 279 278 278 278 278 278 278 279 279 280 283 283 281 279 279 278 277 278 277 278 278 279 279 279 279 280 279 276 274 274 273 274 275 273 273 272 271
280 279 279 279 278 278 277 277 276 277 277 277 277 279 279 280 282 282 280 278 277 277 276 276 276 276 279 277 277 276 275 276 276 277 275 274 274 275 274 274 272 272 271
280 279 279 279 278 277 277 276 276 276 276 276 278 278 278 279 282 281 279 277 276 275 276 275 276 276 279 279 275 274 274 275 277 277 275 276 276 275 276 272 267 266 265
280 280 279 279 278 277 276 275 276 276 276 277 277 277 277 278 280 280 278 277 275 275 275 275 276 276 278 277 274 273 272 273 272 271 271 271 272 272 273 272 270 266 266
280 279 277 277 277 276 275 275 275 275 275 274 274 274 275 277 278 279 278 277 276 275 275 273 275 277 275 275 274 273 273 272 270 268 268 268 269 270 270 270 270 268 266
277 276 276 276 276 275 275 275 275 274 273 273 272 271 272 273 277 278 278 277 277 275 273 273 274 274 273 273 272 273 272 269 267 265 265 265 266 266 267 268 268 269 269
275 274 274 275 275 275 274 274 273 273 272 272 271 269 270 272 274 277 277 276 276 274 274 273 272 271 271 270 271 270 268 266 265 262 263 264 265 265 266 266 266 267 267
273 272 273 273 273 273 274 274 273 272 272 271 270 269 270 270 271 273 274 274 275 273 272 268 269 269 269 268 267 266 266 265 264 263 263 263 264 263 263 264 263 263 261
271 271 271 271 271 271 272 272 272 273 273 271 271 271 269 268 270 273 273 272 272 270 264 263 263 264 263 263 263 263 263 263 262 262 261 260 261 262 261 262 262 260 258
269 269 270 270 270 270 270 271 275 274 276 276 275 273 272 273 275 276 275 275 275 270 261 260 261 261 261 261 260 260 261 260 261 261 259 259 259 259 259 260 260 258 257
269 269 269 269 269 269 270 270 269 273 276 276 276 275 273 274 276 275 275 275 274 267 257 256 259 260 259 260 259 259 258 260 260 259 258 258 259 258 257 257 257 258 257
269 269 269 269 269 269 269 269 270 270 269 270 275 273 274 274 275 274 274 273 266 260 254 254 252 254 255 256 256 256 257 257 257 257 256 254 252 254 254 254 255 255 255
268 268 268 268 268 268 268 267 266 265 265 264 263 269 268 273 272 272 273 263 260 257 252 251 252 252 253 253 254 253 253 252 253 251 250 250 250 249 251 254 255 255 255
267 268 267 267 266 266 266 265 265 264 264 263 262 262 261 261 261 261 260 258 256 255 254 253 251 250 251 251 250 249 248 247 248 248 250 250 250 250 253 252 253 253 253
265 265 266 265 264 264 264 264 264 263 262 261 261 261 263 260 259 259 258 256 256 256 254 253 252 250 249 248 246 246 246 250 248 249 248 249 248 247 251 253 253 253 253
264 263 263 263 263 263 263 263 263 262 262 261 260 260 268 261 260 259 258 257 255 254 254 253 251 250 249 248 248 247 247 248 247 249 250 250 248 249 250 251 251 251 252
263 262 262 262 262 262 262 262 261 261 261 260 260 258 257 258 257 256 254 252 251 251 250 249 249 248 248 249 249 250 249 250 251 250 249 248 248 249 249 249 250 250 250
261 261 260 260 260 260 260 259 259 259 259 257 256 255 255 254 253 253 252 251 250 249 249 248 249 249 247 249 249 250 251 251 249 250 249 250 250 250 250 250 250 250 250
260 260 260 259 259 258 258 258 257 257 256 255 254 253 253 253 252 252 252 249 249 248 248 249 249 250 250 250 250 249 250 255 254 251 250 249 250 250 250 250 250 250 249
259 259 259 258 258 257 257 257 256 255 255 255 254 253 253 252 252 252 250 249 249 249 249 249 250 250 250 250 250 252 252 255 253 253 252 251 251 250 250 249 248 249 250
Wind_Speed
6 5 6 5 5 5 6 5 5 6 7 7 7 7 7 6 6 7 7 8 9 7 6 7 7 7 5 5 5 5 5 3 1 3 2 5 6 8 9 8 8 7 8
5 5 5 5 5 6 5 5 5 6 6 6 6 7 7 6 6 7 8 6 8 7 7 7 8 6 7 6 4 5 4 4 2 1 3 4 3 5 8 8 7 6 7
4 5 5 5 5 6 5 5 6 6 6 6 6 7 7 6 6 5 7 8 8 7 7 8 7 7 7 5 5 4 3 4 3 2 2 2 2 4 9 5 8 7 7
5 5 6 5 6 6 6 5 6 5 7 6 6 6 7 6 7 6 7 8 8 8 8 7 7 7 6 6 6 4 3 2 2 2 1 2 1 5 3 8 10 8 10
7 6 6 5 5 6 6 6 6 6 6 7 8 7 7 6 4 6 7 8 9 9 8 8 8 7 12 9 4 4 4 4 3 3 3 2 2 6 9 8 9 10 9
7 7 6 6 5 5 7 7 7 7 7 7 7 7 6 4 12 12 9 8 9 9 9 8 7 6 7 10 11 10 7 5 5 3 3 6 7 7 7 8 8 9 6
9 8 8 9 8 7 7 8 8 8 8 7 7 7 7 6 13 13 13 7 8 8 7 7 7 4 3 3 7 9 8 9 8 4 5 5 6 8 8 9 8 8 7
11 10 11 10 10 8 8 8 8 7 9 9 8 7 7 6 13 14 14 8 8 8 7 7 6 4 3 6 5 5 5 4 4 5 6 5 4 6 7 8 10 9 8
14 13 13 12 12 12 11 10 8 8 8 7 8 7 7 7 12 13 10 7 8 8 7 6 5 3 6 9 4 4 3 3 5 9 9 9 11 11 10 5 4 7 5
15 14 13 13 12 12 11 11 8 8 8 7 8 6 7 7 11 10 8 5 7 6 8 7 5 1 8 6 4 2 3 4 5 7 6 7 8 8 10 7 5 4 5
9 11 12 13 13 12 11 8 10 9 8 8 7 5 5 6 7 10 9 5 5 5 6 5 3 5 6 4 5 3 4 6 6 5 5 5 5 5 5 6 6 6 5
9 10 12 12 10 10 13 11 11 11 11 9 9 5 4 4 7 9 9 8 7 6 5 4 4 4 4 4 4 6 7 5 2 2 3 3 3 5 6 7 8 7 7
8 9 10 10 10 11 12 11 9 10 9 9 8 8 6 4 5 12 12 11 9 6 6 6 5 4 6 5 6 6 4 2 1 1 1 2 4 5 7 6 6 7 8
8 9 10 11 10 9 7 8 9 8 8 8 8 8 7 6 6 5 6 6 8 8 8 4 5 5 6 5 2 3 1 1 1 2 2 3 3 4 5 5 5 6 7
7 7 8 7 9 8 6 7 8 7 9 9 8 8 9 8 8 11 9 6 5 7 6 3 3 2 2 1 0 0 0 1 1 1 2 3 4 4 5 5 5 5 4
8 7 7 7 6 6 7 6 9 10 13 14 14 9 6 9 17 17 15 14 15 14 3 2 2 2 2 2 1 1 2 2 1 1 1 2 3 5 5 5 5 5 7
6 7 6 6 7 8 7 8 8 9 12 12 14 14 13 13 17 15 14 13 13 9 3 2 3 4 3 3 3 3 2 2 2 1 3 3 3 4 5 5 6 6 7
6 7 6 6 6 7 7 7 6 8 8 7 11 9 13 13 14 13 13 11 6 3 2 3 3 4 4 4 3 3 3 2 2 2 2 2 2 3 4 5 6 7 8
7 7 7 6 6 7 7 7 6 6 6 4 2 7 3 14 12 12 14 4 4 3 3 3 4 4 4 3 3 4 3 3 3 3 2 3 3 2 4 5 7 10 11
4 8 7 7 7 7 7 7 7 8 8 8 8 7 4 3 3 3 2 3 3 3 4 4 4 4 4 4 4 4 3 3 3 3 4 3 3 4 6 6 6 8 8
4 4 7 5 6 6 6 6 6 6 6 6 6 6 12 5 6 5 5 4 4 4 4 4 4 4 4 5 4 4 3 4 3 4 4 4 3 3 5 7 7 8 9
4 5 5 6 6 6 6 6 6 6 6 6 5 5 16 6 5 5 5 4 4 4 4 4 5 5 5 5 5 4 5 5 4 4 4 4 4 5 5 6 7 8 8
4 4 3 2 3 6 6 6 6 6 5 5 5 5 4 3 4 4 4 4 4 4 4 5 5 5 4 5 5 6 6 7 6 5 5 5 5 5 5 6 7 7 7
4 4 5 4 5 5 5 5 4 6 5 5 5 4 5 4 4 5 5 4 4 4 4 5 5 6 4 5 4 6 6 5 4 6 8 6 6 6 6 7 8 9 9
5 6 6 5 5 5 5 6 6 6 6 6 5 5 4 5 4 5 5 4 4 5 6 5 5 7 9 10 9 9 8 12 10 8 6 7 9 9 8 8 9 8 10
6 6 6 5 6 6 6 6 6 6 6 6 5 5 5 5 5 6 5 5 5 5 6 5 7 10 10 9 9 10 11 14 12 12 8 8 8 8 7 9 10 8 11
Wind_Direction
131 125 121 109 99 93 96 97 104 104 113 108 107 104 96 96 99 98 91 95 96 95 81 91 76 65 63 55 49 45 47 28 112 307 357 15 15 6 350 348 352 349 345
132 120 117 113 111 106 104 104 96 92 84 101 105 105 106 97 95 107 114 112 111 105 97 92 77 77 67 56 53 55 51 36 56 317 333 3 347 10 340 337 342 347 334
144 138 134 133 126 120 118 118 115 116 106 98 103 105 108 105 104 95 105 105 102 103 103 99 102 104 92 88 77 73 41 52 39 47 324 350 317 359 339 342 342 341 338
159 158 153 154 147 139 129 117 110 109 111 106 98 104 104 109 110 108 106 104 98 93 87 83 84 85 96 103 89 79 73 75 65 51 56 320 320 327 309 343 345 350 332
170 168 173 155 142 134 129 124 116 109 102 112 110 105 111 112 115 116 114 113 112 107 94 88 75 59 83 87 93 77 59 47 38 41 45 318 349 354 1 341 328 330 319
177 181 157 145 148 150 136 132 122 115 113 111 107 110 105 105 126 123 118 118 115 116 115 107 93 71 61 65 64 67 65 58 47 33 25 12 358 351 342 337 334 345 348
178 174 166 159 162 160 144 137 137 136 129 124 123 126 122 122 133 129 125 116 116 115 119 124 111 87 80 80 66 72 55 52 50 49 26 20 345 340 340 336 341 335 316
189 182 174 169 160 155 153 150 144 146 144 141 136 133 129 134 140 136 128 120 116 111 109 105 112 109 52 83 74 76 53 61 32 39 41 356 335 352 343 340 336 318 306
193 188 180 173 165 165 165 158 152 147 143 143 139 136 133 135 148 144 134 126 119 116 111 106 113 84 60 59 57 65 61 65 20 23 15 7 1 355 357 360 344 346 321
195 189 175 171 169 168 162 159 155 151 147 146 139 131 132 134 149 151 140 136 132 134 129 120 101 64 68 42 76 82 67 32 14 14 9 8 5 352 3 7 350 331 334
181 168 169 170 166 162 152 151 150 149 143 137 131 120 104 113 136 150 144 141 136 148 142 137 141 80 65 61 92 60 32 40 25 13 1 354 354 350 340 344 344 339 324
158 164 166 164 162 158 156 153 156 150 146 144 137 129 122 116 146 138 133 126 140 149 147 149 122 71 87 100 80 53 45 51 35 8 355 337 347 337 328 331 329 324 311
156 158 157 156 158 157 157 156 154 157 157 156 160 154 159 156 157 158 145 140 143 141 133 122 108 104 98 83 63 57 74 52 29 333 297 336 338 319 317 317 311 308 296
161 158 156 157 153 157 156 159 161 165 165 162 170 165 163 166 170 166 158 147 147 125 115 91 109 111 96 94 69 51 35 51 349 317 325 319 306 313 319 318 317 326 310
152 153 159 152 155 151 154 164 168 172 175 172 177 166 163 177 184 173 159 161 152 142 116 120 102 101 101 111 148 201 292 345 260 273 272 303 319 318 313 323 318 324 304
155 156 159 152 160 153 150 142 167 165 173 174 166 159 164 176 175 172 168 172 159 143 109 126 131 142 190 206 227 267 251 235 262 303 294 297 305 304 310 317 313 311 307
165 155 145 152 157 154 155 155 148 171 168 169 167 164 166 171 175 172 172 171 162 140 108 126 159 179 197 208 207 208 221 224 282 258 281 282 296 304 309 314 310 310 300
130 141 146 159 153 152 152 155 155 156 155 155 160 155 166 178 177 180 183 155 153 102 119 155 190 197 204 206 202 200 221 223 235 247 246 241 255 272 298 299 299 297 296
147 148 149 150 153 149 145 144 144 142 147 126 85 161 202 181 183 194 201 142 166 187 182 187 195 203 205 196 209 215 206 210 210 217 234 225 230 227 269 277 282 286 289
165 168 165 162 158 159 164 169 170 172 171 171 173 184 168 102 157 195 174 162 167 192 192 200 200 198 207 207 208 209 216 210 226 217 235 226 222 221 265 269 271 282 284
162 163 156 150 161 164 163 166 168 170 174 180 186 179 181 177 189 185 191 188 196 199 210 209 195 200 210 206 199 203 212 236 209 218 213 222 211 232 242 255 269 273 278
174 173 179 172 162 164 163 161 164 182 182 176 172 189 196 190 188 194 197 201 202 207 207 202 213 204 200 196 191 196 213 223 207 208 228 232 221 231 244 254 261 269 274
167 169 168 179 183 168 168 168 162 181 174 174 168 173 203 199 200 206 213 212 212 218 207 209 216 221 208 205 193 197 212 221 216 189 212 219 224 233 223 247 258 265 268
162 174 179 182 185 188 176 167 170 182 179 180 180 189 202 208 211 224 224 217 218 226 218 213 210 218 206 215 206 213 220 223 190 211 207 222 233 226 234 245 250 257 265
182 182 186 196 201 197 188 180 183 183 187 187 191 199 202 214 222 233 233 219 224 221 225 213 214 221 227 226 219 218 222 237 231 207 207 215 229 228 238 243 248 256 261
193 199 202 190 191 191 192 191 196 193 195 195 197 197 201 207 222 229 226 223 230 230 231 218 222 224 226 233 232 231 233 238 234 229 220 222 226 230 228 236 242 248 255